FLOCK 3P-55 (42041 NORAD) Tracking and Keplerian Element Data

This shows tracking and keplerian element data for the satellite.

Feedback or suggestion? Click here.




ElementValue
Catalog42041
NameFLOCK 3P-55
Epoch Orbit5542
Epoch Day45.4418103
Epoch Year2018
RAAN111.1011
Inclination97.4658
Eccentricity0.0009107
Argument of Perigee92.8426
Mean Anonmoly267.3854
Mean Motion15.23911469
Decay Rate2.155E-05
L11 42041U 17008CX 18045.44181030 .00002155 00000-0 92119-4 0 9995
L22 42041 97.4658 111.1011 0009107 92.8426 267.3854 15.23911469 55428

Live tracking and technical data element details for FLOCK 3P-55 (NORAD 42041). FLOCK 3P-55 can be tracked NOW for your location showing map with azimuth and elevation plus other details from your city location.

Track the satellite on the map from your city or location and see movement details for azimuth, elevation, latitude, longitude, range, height, and movement on the map or in text.







IsCatalogInMostPopularTable: catalog: 42041, numindb: 146
Update: records affected: 1



GetName: 42041 FLOCK 3P-55

Hit Count: updated at: Tue, 18 Dec 2018 20:49:34 GMT